STARLINK-1247, 45236

Orbit data source: Space-Track

STARLINK-1247, 45236 is a payload satellite owned by SpaceX/Seattle (US) in LEO that was launched on Mon, 17 Feb 2020 UTC via an FALCON 9 launch vehicle from the Air Force Eastern Test Range (AFETR). Payloads include a variety of satellites, spacecraft, and rockets equipped with specific instruments for various scientific and technological missions. These include communications satellites like Starlink; space stations such as the ISS; scientific satellites like the Hubble; Earth observation satellites from companies like Planet Labs, Umbra, and HawkEye 360; GPS; miniature CubeSats for education and research; and military/defense satellites.

Loading next visibility...
STARLINK-1247 details
Identifier
45236, 2020-012BL
Orbit
LEO
Last TLE update13 hours ago
Origin
Flag of USSpaceX/Seattle (US)
ManufacturerSpaceX/Seattle
MissionOperational Commercial Communications
Bus & MotorSTARLINK, Unknown motor
Mass260 kg wet, ~248 kg dry
Launch date (UTC)
2020-02-17 (5 years ago)
Launch vehicle
FALCON 9
Launch site
Air Force Eastern Test Range (AFETR)
Object type
Payload
Rocket body
Debris
Shape & HBRBox + 1 Pan, 8.86 m
Radar Cross Section13.562 m², Large (>1 m²)

Expand to show TLE details & history

TLE from 13 hours ago
0 STARLINK-1247
1 45236U 20012BL  24346.40999942  .00007280  00000-0  50733-3 0  9998
2 45236  53.0536 241.4691 0001215  98.3693 261.7434 15.06384615267076
Epoch: 2024-12-11T09:50Z
Definitive object data (Epoch: 2024-12-11T09:50:23.949Z)
Latitude-0.00002°
Longitude13.26421°
Altitude548.259 km
Speed7.589 km/s
True Right ascension16h 05m 52s
True Declination0° 00' 00"
Sunlit
Object was in daylight at TLE epoch
Visualization TLE readout
Latitude-15.67424°
Longitude-1.21837°
Altitude551.857 km
Speed7.586 km/s
Apparent Right ascension12h 37m 50s
Apparent Declination-36° 27' 57"
Sunlit
Object is in daylight
Visualization observer readout
Local Sidereal Time20:53:31
Azimuth255.879° W
Elevation-46.517°
Doppler factor1
Orbital elements
Apogee altitude548.371 km
Perigee altitude546.688 km
Semi-major axis6,925.667 km
Eccentricity0.0001215
Inclination53.0536°
RAAN241.4691°
Arg. of periapsis98.3693°
True anomaly261.72962°
Mean anomaly261.7434°
Eccentric anomaly261.73651°
Mean motion3.76574 °/min
BSTAR0.00050733
Orbital period95.6 mins
Loading maneuver chart data...

STARLINK-1247 Visibility forecast

Observer location: undefined°, undefined

Span
Click to sort rows by Start time (UTC) header in descending order
Start Az.
Max El. time (UTC)
Max El. Az.
Max El.
End time (UTC)
End Az.
6 mins2024-12-12 02:15:30.217Z327.822° NNW2024-12-12 02:17:30.217Z12.301° NNE35.579°2024-12-12 02:21:30.217Z108.03° ESE
5 mins2024-12-12 03:55:30.217Z266.915° W2024-12-12 03:57:30.217Z224.413° SW22.177°2024-12-12 04:00:30.217Z176.566° S
6 mins2024-12-12 19:27:30.217Z212.922° SW2024-12-12 19:30:30.217Z107.669° ESE40.78°2024-12-12 19:33:30.217Z57.65° ENE
4 mins2024-12-12 21:08:30.217Z302.146° NW2024-12-12 21:09:30.217Z323.675° NNW22.865°2024-12-12 21:12:30.217Z23.474° NE
|